| time (UTC) | temp F | wind direction | speed MPH | gust MPH | rain 1hr in | rain 24hr in | rain mn in | humidity % | barometer mb |
| 20260510192505 | 63 | 285 | 3.0 | 9.0 | 0.00 | 0.00 | 0.00 | 45 | 1016.1 |
| 20260510192006 | 63 | 21 | 1.0 | 9.0 | 0.00 | 0.00 | 0.00 | 42 | 1016.1 |
| 20260510191516 | 63 | 316 | 5.0 | 10.0 | 0.00 | 0.00 | 0.00 | 46 | 1016.2 |
| 20260510191003 | 63 | 333 | 4.0 | 10.0 | 0.00 | 0.00 | 0.00 | 42 | 1016.0 |
| 20260510190511 | 63 | 293 | 6.0 | 11.0 | 0.00 | 0.00 | 0.00 | 42 | 1015.9 |
| 20260510190020 | 63 | 276 | 5.0 | 11.0 | 0.00 | 0.00 | 0.00 | 41 | 1015.9 |
| 20260510185506 | 63 | 358 | 3.0 | 11.0 | 0.00 | 0.00 | 0.00 | 41 | 1015.9 |
| 20260510185002 | 63 | 320 | 4.0 | 11.0 | 0.00 | 0.00 | 0.00 | 40 | 1015.8 |
| 20260510184515 | 63 | 311 | 3.0 | 12.0 | 0.00 | 0.00 | 0.00 | 42 | 1015.9 |
| 20260510184009 | 63 | 38 | 5.0 | 12.0 | 0.00 | 0.00 | 0.00 | 42 | 1015.8 |
| 20260510183508 | 63 | 34 | 3.0 | 6.0 | 0.00 | 0.00 | 0.00 | 42 | 1015.7 |
| 20260510183018 | 63 | 51 | 1.0 | 6.0 | 0.00 | 0.00 | 0.00 | 41 | 1015.8 |
| 20260510182507 | 63 | 259 | 0.0 | 9.0 | 0.00 | 0.00 | 0.00 | 42 | 1015.9 |
| 20260510182006 | 62 | 96 | 2.0 | 10.0 | 0.00 | 0.00 | 0.00 | 45 | 1015.9 |
| 20260510181517 | 62 | 3 | 3.0 | 10.0 | 0.00 | 0.00 | 0.00 | 44 | 1015.8 |
| 20260510181007 | 63 | 128 | 4.0 | 8.0 | 0.00 | 0.00 | 0.00 | 45 | 1015.8 |
| 20260510180504 | 63 | 326 | 3.0 | 11.0 | 0.00 | 0.00 | 0.00 | 46 | 1015.8 |
| 20260510180007 | 62 | 325 | 1.0 | 11.0 | 0.00 | 0.00 | 0.00 | 49 | 1015.8 |
| 20260510175506 | 62 | 347 | 1.0 | 11.0 | 0.00 | 0.00 | 0.00 | 47 | 1015.6 |
| 20260510175003 | 62 | 96 | 4.0 | 11.0 | 0.00 | 0.00 | 0.00 | 47 | 1015.5 |
| 20260510174513 | 62 | 13 | 3.0 | 9.0 | 0.00 | 0.00 | 0.00 | 47 | 1015.4 |
| 20260510174007 | 62 | 64 | 5.0 | 10.0 | 0.00 | 0.00 | 0.00 | 48 | 1015.3 |
| 20260510173508 | 62 | 59 | 6.0 | 10.0 | 0.00 | 0.00 | 0.00 | 47 | 1015.3 |
| 20260510173016 | 62 | 23 | 2.0 | 8.0 | 0.00 | 0.00 | 0.00 | 49 | 1015.4 |
| 20260510172506 | 62 | 8 | 3.0 | 9.0 | 0.00 | 0.00 | 0.00 | 49 | 1015.5 |
| 20260510172006 | 62 | 302 | 2.0 | 9.0 | 0.00 | 0.00 | 0.00 | 51 | 1015.5 |
| 20260510171520 | 62 | 321 | 4.0 | 8.0 | 0.00 | 0.00 | 0.00 | 48 | 1015.4 |
| 20260510171007 | 62 | 8 | 5.0 | 8.0 | 0.00 | 0.00 | 0.00 | 45 | 1015.5 |
| 20260510170506 | 62 | 90 | 2.0 | 8.0 | 0.00 | 0.00 | 0.00 | 49 | 1015.5 |
| 20260510170023 | 62 | 46 | 2.0 | 8.0 | 0.00 | 0.00 | 0.00 | 49 | 1015.5 |
| 20260510165507 | 62 | 27 | 3.0 | 8.0 | 0.00 | 0.00 | 0.00 | 44 | 1015.7 |
| 20260510165007 | 62 | 325 | 4.0 | 8.0 | 0.00 | 0.00 | 0.00 | 53 | 1015.8 |
| 20260510164507 | 62 | 60 | 3.0 | 7.0 | 0.00 | 0.00 | 0.00 | 55 | 1015.7 |
| 20260510164004 | 62 | 333 | 2.0 | 7.0 | 0.00 | 0.00 | 0.00 | 54 | 1015.7 |
| 20260510163505 | 62 | 312 | 2.0 | 6.0 | 0.00 | 0.00 | 0.00 | 52 | 1015.6 |
| 20260510163011 | 62 | 16 | 3.0 | 8.0 | 0.00 | 0.00 | 0.00 | 52 | 1015.7 |
| 20260510162503 | 61 | 325 | 4.0 | 8.0 | 0.00 | 0.00 | 0.00 | 52 | 1015.7 |
| 20260510162007 | 61 | 34 | 3.0 | 10.0 | 0.00 | 0.00 | 0.00 | 52 | 1015.6 |
| 20260510161518 | 61 | 30 | 5.0 | 10.0 | 0.00 | 0.00 | 0.00 | 52 | 1015.6 |
| 20260510161007 | 61 | 263 | 2.0 | 8.0 | 0.00 | 0.00 | 0.00 | 57 | 1015.4 |
| 20260510160508 | 61 | 71 | 3.0 | 8.0 | 0.00 | 0.00 | 0.00 | 52 | 1015.5 |
| 20260510160020 | 61 | 94 | 2.0 | 11.0 | 0.00 | 0.00 | 0.00 | 60 | 1015.4 |
| 20260510155506 | 61 | 39 | 4.0 | 11.0 | 0.00 | 0.00 | 0.00 | 57 | 1015.4 |
| 20260510155007 | 60 | 335 | 3.0 | 9.0 | 0.00 | 0.00 | 0.00 | 58 | 1015.4 |
| 20260510154524 | 60 | 310 | 5.0 | 9.0 | 0.00 | 0.00 | 0.00 | 53 | 1015.3 |
| 20260510154007 | 60 | 57 | 3.0 | 8.0 | 0.00 | 0.00 | 0.00 | 56 | 1015.2 |
| 20260510153508 | 60 | 67 | 3.0 | 9.0 | 0.00 | 0.00 | 0.00 | 59 | 1015.2 |
| 20260510153037 | 60 | 293 | 3.0 | 9.0 | 0.00 | 0.00 | 0.00 | 58 | 1015.2 |
| 20260510152504 | 60 | 68 | 3.0 | 8.0 | 0.00 | 0.00 | 0.00 | 56 | 1015.1 |
| 20260510152003 | 59 | 56 | 2.0 | 8.0 | 0.00 | 0.00 | 0.00 | 57 | 1015.0 |
| 20260510151525 | 59 | 347 | 2.0 | 7.0 | 0.00 | 0.00 | 0.00 | 59 | 1015.0 |
| 20260510151003 | 59 | 10 | 3.0 | 7.0 | 0.00 | 0.00 | 0.00 | 55 | 1014.9 |
| 20260510150507 | 59 | 62 | 2.0 | 9.0 | 0.00 | 0.00 | 0.00 | 57 | 1014.8 |
| 20260510150017 | 59 | 79 | 3.0 | 9.0 | 0.00 | 0.00 | 0.00 | 57 | 1014.8 |
| 20260510145506 | 58 | 53 | 2.0 | 9.0 | 0.00 | 0.00 | 0.00 | 58 | 1014.7 |
| 20260510145009 | 58 | 85 | 4.0 | 9.0 | 0.00 | 0.00 | 0.00 | 59 | 1014.6 |
| 20260510144522 | 58 | 79 | 5.0 | 8.0 | 0.00 | 0.00 | 0.00 | 59 | 1014.7 |
| 20260510144006 | 58 | 90 | 2.0 | 7.0 | 0.00 | 0.00 | 0.00 | 58 | 1014.8 |
| 20260510143514 | 58 | 89 | 3.0 | 7.0 | 0.00 | 0.00 | 0.00 | 57 | 1014.7 |
| 20260510143023 | 57 | 89 | 4.0 | 8.0 | 0.00 | 0.00 | 0.00 | 58 | 1014.5 |
| 20260510142510 | 57 | 144 | 3.0 | 8.0 | 0.00 | 0.00 | 0.00 | 58 | 1014.3 |
| 20260510142008 | 57 | 87 | 4.0 | 8.0 | 0.00 | 0.00 | 0.00 | 60 | 1014.2 |
| 20260510141530 | 57 | 334 | 2.0 | 9.0 | 0.00 | 0.00 | 0.00 | 60 | 1014.2 |
| 20260510141008 | 56 | 349 | 3.0 | 9.0 | 0.00 | 0.00 | 0.00 | 59 | 1014.2 |
| 20260510140507 | 57 | 97 | 4.0 | 9.0 | 0.00 | 0.00 | 0.00 | 59 | 1014.0 |
| 20260510140016 | 56 | 9 | 3.0 | 7.0 | 0.00 | 0.00 | 0.00 | 60 | 1014.1 |
| 20260510135504 | 56 | 87 | 3.0 | 9.0 | 0.00 | 0.00 | 0.00 | 62 | 1014.2 |
| 20260510135007 | 56 | 8 | 4.0 | 9.0 | 0.00 | 0.00 | 0.00 | 61 | 1014.1 |
| 20260510134521 | 55 | 1 | 3.0 | 8.0 | 0.00 | 0.00 | 0.00 | 65 | 1014.0 |
| 20260510134007 | 55 | 59 | 3.0 | 7.0 | 0.00 | 0.00 | 0.00 | 64 | 1013.8 |
| 20260510133506 | 54 | 98 | 4.0 | 7.0 | 0.00 | 0.00 | 0.00 | 63 | 1013.9 |
| 20260510133025 | 54 | 110 | 4.0 | 7.0 | 0.00 | 0.00 | 0.00 | 64 | 1013.8 |
| 20260510132508 | 54 | 20 | 3.0 | 7.0 | 0.00 | 0.00 | 0.00 | 67 | 1013.6 |
| 20260510132011 | 53 | 75 | 3.0 | 7.0 | 0.00 | 0.00 | 0.00 | 68 | 1013.8 |
| 20260510131523 | 54 | 352 | 2.0 | 8.0 | 0.00 | 0.00 | 0.00 | 66 | 1014.0 |
| 20260510131008 | 53 | 14 | 2.0 | 8.0 | 0.00 | 0.00 | 0.00 | 66 | 1013.8 |
| 20260510130507 | 53 | 358 | 4.0 | 8.0 | 0.00 | 0.00 | 0.00 | 67 | 1013.6 |
| 20260510130041 | 53 | 41 | 0.0 | 4.0 | 0.00 | 0.00 | 0.00 | 68 | 1013.7 |
| 20260510125503 | 53 | 56 | 0.0 | 4.0 | 0.00 | 0.00 | 0.00 | 69 | 1013.6 |
| 20260510125008 | 52 | 78 | 1.0 | 4.0 | 0.00 | 0.00 | 0.00 | 68 | 1013.6 |
| 20260510124519 | 52 | 338 | 1.0 | 5.0 | 0.00 | 0.00 | 0.00 | 69 | 1013.6 |
| 20260510124007 | 52 | 36 | 1.0 | 5.0 | 0.00 | 0.00 | 0.00 | 69 | 1013.4 |
| 20260510123505 | 52 | 30 | 3.0 | 5.0 | 0.00 | 0.00 | 0.00 | 68 | 1013.4 |
| 20260510123020 | 52 | 29 | 3.0 | 5.0 | 0.00 | 0.00 | 0.00 | 67 | 1013.2 |
| 20260510122506 | 52 | 356 | 1.0 | 4.0 | 0.00 | 0.00 | 0.00 | 67 | 1013.3 |
| 20260510122005 | 52 | 78 | 1.0 | 4.0 | 0.00 | 0.00 | 0.00 | 67 | 1013.2 |
| 20260510121504 | 52 | 17 | 1.0 | 5.0 | 0.00 | 0.00 | 0.00 | 67 | 1013.0 |
| 20260510121002 | 51 | 58 | 1.0 | 5.0 | 0.00 | 0.00 | 0.00 | 69 | 1012.9 |
| 20260510120503 | 51 | 33 | 0.0 | 3.0 | 0.00 | 0.00 | 0.00 | 70 | 1012.9 |
| 20260510120023 | 51 | 15 | 1.0 | 3.0 | 0.00 | 0.00 | 0.00 | 69 | 1012.9 |
| 20260510115504 | 51 | 94 | 1.0 | 4.0 | 0.00 | 0.00 | 0.00 | 70 | 1012.8 |
| 20260510115004 | 51 | 137 | 0.0 | 5.0 | 0.00 | 0.00 | 0.00 | 70 | 1012.9 |
| 20260510114515 | 51 | 69 | 2.0 | 5.0 | 0.00 | 0.00 | 0.00 | 69 | 1012.7 |
| 20260510114010 | 51 | 336 | 0.0 | 3.0 | 0.00 | 0.00 | 0.00 | 70 | 1012.6 |
| 20260510113505 | 51 | 62 | 0.0 | 3.0 | 0.00 | 0.00 | 0.00 | 70 | 1012.3 |
| 20260510113015 | 51 | 18 | 1.0 | 3.0 | 0.00 | 0.00 | 0.00 | 70 | 1012.2 |
| 20260510112507 | 51 | 77 | 1.0 | 2.0 | 0.00 | 0.00 | 0.00 | 69 | 1012.1 |
| 20260510112007 | 51 | 89 | 0.0 | 4.0 | 0.00 | 0.00 | 0.00 | 70 | 1012.2 |
| 20260510111523 | 51 | 76 | 0.0 | 4.0 | 0.00 | 0.00 | 0.00 | 71 | 1012.1 |
| 20260510111006 | 51 | 345 | 0.0 | 2.0 | 0.00 | 0.00 | 0.00 | 71 | 1012.1 |
| 20260510110509 | 51 | 124 | 0.0 | 2.0 | 0.00 | 0.00 | 0.00 | 71 | 1012.0 |
| 20260510110009 | 51 | 137 | 0.0 | 2.0 | 0.00 | 0.00 | 0.00 | 71 | 1011.7 |
| 20260510105504 | 51 | 32 | 0.0 | 2.0 | 0.00 | 0.00 | 0.00 | 72 | 1011.5 |
| 20260510105002 | 51 | 139 | 0.0 | 3.0 | 0.00 | 0.00 | 0.00 | 71 | 1011.4 |
| 20260510104510 | 51 | 92 | 0.0 | 4.0 | 0.00 | 0.00 | 0.00 | 71 | 1011.4 |
| 20260510104004 | 51 | 115 | 0.0 | 4.0 | 0.00 | 0.00 | 0.00 | 71 | 1011.5 |
| 20260510103504 | 52 | 27 | 1.0 | 4.0 | 0.00 | 0.00 | 0.00 | 71 | 1011.4 |
| 20260510103016 | 52 | 29 | 0.0 | 4.0 | 0.00 | 0.00 | 0.00 | 71 | 1011.4 |
| 20260510102507 | 52 | 18 | 1.0 | 5.0 | 0.00 | 0.00 | 0.00 | 71 | 1011.4 |
| 20260510102007 | 52 | 319 | 2.0 | 5.0 | 0.00 | 0.00 | 0.00 | 70 | 1011.1 |
| 20260510101530 | 53 | 105 | 1.0 | 4.0 | 0.00 | 0.00 | 0.00 | 71 | 1011.0 |
| 20260510101006 | 53 | 311 | 0.0 | 5.0 | 0.00 | 0.00 | 0.00 | 70 | 1011.4 |
| 20260510100505 | 53 | 188 | 1.0 | 6.0 | 0.00 | 0.00 | 0.00 | 70 | 1011.3 |
| 20260510100026 | 53 | 325 | 0.0 | 6.0 | 0.00 | 0.00 | 0.00 | 69 | 1010.8 |
| 20260510095506 | 54 | 333 | 2.0 | 6.0 | 0.00 | 0.00 | 0.00 | 70 | 1010.6 |
| 20260510095008 | 54 | 311 | 2.0 | 6.0 | 0.00 | 0.00 | 0.00 | 69 | 1010.5 |
| 20260510094528 | 54 | 330 | 2.0 | 6.0 | 0.00 | 0.00 | 0.00 | 69 | 1010.4 |
| 20260510094011 | 54 | 44 | 1.0 | 6.0 | 0.00 | 0.00 | 0.00 | 69 | 1010.2 |
| 20260510093502 | 54 | 44 | 1.0 | 4.0 | 0.00 | 0.01 | 0.00 | 69 | 1010.3 |
| 20260510093011 | 54 | 319 | 1.0 | 5.0 | 0.00 | 0.01 | 0.00 | 69 | 1010.2 |
| 20260510092505 | 54 | 8 | 1.0 | 7.0 | 0.00 | 0.01 | 0.00 | 69 | 1010.2 |
| 20260510092007 | 55 | 35 | 2.0 | 7.0 | 0.00 | 0.01 | 0.00 | 68 | 1010.0 |
| 20260510091526 | 55 | 320 | 1.0 | 8.0 | 0.00 | 0.01 | 0.00 | 68 | 1010.1 |
| 20260510091006 | 55 | 122 | 1.0 | 8.0 | 0.00 | 0.01 | 0.00 | 68 | 1010.0 |
| 20260510090506 | 55 | 52 | 3.0 | 8.0 | 0.00 | 0.01 | 0.00 | 67 | 1009.9 |
| 20260510090026 | 55 | 29 | 3.0 | 8.0 | 0.00 | 0.01 | 0.00 | 68 | 1009.8 |
| 20260510085505 | 56 | 6 | 3.0 | 7.0 | 0.00 | 0.01 | 0.00 | 67 | 1009.7 |
| 20260510085006 | 56 | 122 | 2.0 | 12.0 | 0.00 | 0.01 | 0.00 | 68 | 1009.5 |
| 20260510084527 | 56 | 30 | 2.0 | 12.0 | 0.00 | 0.01 | 0.00 | 68 | 1009.4 |
| 20260510084010 | 56 | 296 | 3.0 | 7.0 | 0.00 | 0.01 | 0.00 | 68 | 1009.3 |
| 20260510083508 | 56 | 15 | 2.0 | 8.0 | 0.00 | 0.01 | 0.00 | 69 | 1009.2 |
| 20260510083027 | 57 | 338 | 2.0 | 8.0 | 0.00 | 0.01 | 0.00 | 69 | 1009.1 |
| 20260510082508 | 57 | 27 | 4.0 | 8.0 | 0.00 | 0.01 | 0.00 | 70 | 1009.1 |
| 20260510082010 | 57 | 311 | 2.0 | 7.0 | 0.00 | 0.01 | 0.00 | 70 | 1008.8 |
| 20260510081511 | 57 | 310 | 3.0 | 7.0 | 0.00 | 0.01 | 0.00 | 70 | 1008.9 |
| 20260510081006 | 57 | 30 | 2.0 | 7.0 | 0.00 | 0.01 | 0.00 | 70 | 1009.1 |
| 20260510080505 | 57 | 327 | 2.0 | 7.0 | 0.00 | 0.01 | 0.00 | 70 | 1009.0 |
| 20260510080017 | 57 | 302 | 2.0 | 6.0 | 0.00 | 0.01 | 0.00 | 70 | 1008.8 |
| 20260510075505 | 58 | 338 | 1.0 | 6.0 | 0.00 | 0.01 | 0.00 | 70 | 1008.8 |
| 20260510075005 | 58 | 45 | 3.0 | 6.0 | 0.00 | 0.01 | 0.00 | 70 | 1008.8 |
| 20260510074523 | 58 | 324 | 2.0 | 6.0 | 0.00 | 0.01 | 0.00 | 71 | 1008.7 |
| 20260510074010 | 58 | 317 | 3.0 | 6.0 | 0.00 | 0.02 | 0.00 | 71 | 1008.6 |
| 20260510073512 | 58 | 322 | 2.0 | 6.0 | 0.00 | 0.02 | 0.00 | 71 | 1008.6 |
| 20260510073026 | 59 | 333 | 1.0 | 4.0 | 0.00 | 0.02 | 0.00 | 72 | 1008.5 |
| 20260510072506 | 59 | 309 | 1.0 | 4.0 | 0.00 | 0.02 | 0.00 | 72 | 1008.5 |
| 20260510072012 | 59 | 316 | 2.0 | 5.0 | 0.00 | 0.02 | 0.00 | 73 | 1008.7 |
| 20260510071526 | 59 | 288 | 2.0 | 6.0 | 0.00 | 0.02 | 0.00 | 72 | 1008.6 |
| 20260510071008 | 60 | 284 | 2.0 | 8.0 | 0.00 | 0.02 | 0.00 | 72 | 1008.5 |
| 20260510070510 | 60 | 281 | 3.0 | 8.0 | 0.00 | 0.02 | 0.00 | 72 | 1008.4 |
| 20260510070032 | 60 | 302 | 4.0 | 8.0 | 0.00 | 0.03 | 0.00 | 72 | 1008.3 |
| 20260510065511 | 60 | 321 | 3.0 | 6.0 | 0.00 | 0.03 | 0.00 | 72 | 1008.2 |
| 20260510065008 | 60 | 301 | 3.0 | 6.0 | 0.00 | 0.03 | 0.00 | 72 | 1008.1 |
| 20260510064531 | 60 | 285 | 2.0 | 7.0 | 0.00 | 0.03 | 0.00 | 72 | 1008.2 |
| 20260510064005 | 60 | 302 | 2.0 | 7.0 | 0.00 | 0.03 | 0.00 | 72 | 1008.2 |
| 20260510063508 | 61 | 293 | 1.0 | 6.0 | 0.00 | 0.03 | 0.00 | 72 | 1008.2 |
| 20260510063023 | 61 | 300 | 2.0 | 5.0 | 0.00 | 0.03 | 0.00 | 72 | 1008.3 |
| 20260510062507 | 61 | 261 | 2.0 | 5.0 | 0.00 | 0.03 | 0.00 | 72 | 1008.2 |
| 20260510062007 | 61 | 269 | 2.0 | 8.0 | 0.00 | 0.03 | 0.00 | 71 | 1008.2 |
| 20260510061525 | 61 | 293 | 2.0 | 8.0 | 0.00 | 0.03 | 0.00 | 71 | 1008.2 |
| 20260510061008 | 62 | 309 | 3.0 | 7.0 | 0.00 | 0.03 | 0.00 | 70 | 1008.2 |
| 20260510060509 | 62 | 297 | 2.0 | 6.0 | 0.00 | 0.03 | 0.00 | 70 | 1008.2 |
| 20260510060011 | 62 | 289 | 3.0 | 8.0 | 0.00 | 0.03 | 0.00 | 70 | 1008.1 |
| 20260510055503 | 62 | 272 | 3.0 | 8.0 | 0.00 | 0.03 | 0.00 | 70 | 1008.1 |
| 20260510055003 | 62 | 219 | 4.0 | 8.0 | 0.00 | 0.03 | 0.00 | 70 | 1008.1 |
| 20260510054518 | 62 | 302 | 3.0 | 9.0 | 0.00 | 0.03 | 0.00 | 70 | 1008.1 |
| 20260510054008 | 62 | 284 | 3.0 | 9.0 | 0.00 | 0.03 | 0.00 | 70 | 1008.0 |
| 20260510053506 | 62 | 302 | 4.0 | 9.0 | 0.00 | 0.03 | 0.00 | 70 | 1008.0 |
| 20260510053025 | 62 | 302 | 3.0 | 7.0 | 0.00 | 0.03 | 0.00 | 71 | 1007.9 |
| 20260510052508 | 61 | 262 | 3.0 | 6.0 | 0.00 | 0.03 | 0.00 | 71 | 1007.9 |
| 20260510052007 | 61 | 266 | 3.0 | 5.0 | 0.00 | 0.03 | 0.00 | 72 | 1007.8 |
| 20260510051526 | 61 | 232 | 2.0 | 5.0 | 0.00 | 0.03 | 0.00 | 72 | 1007.8 |
| 20260510051003 | 60 | 273 | 2.0 | 5.0 | 0.00 | 0.03 | 0.00 | 72 | 1007.7 |
| 20260510050503 | 60 | 214 | 0.0 | 2.0 | 0.00 | 0.04 | 0.00 | 72 | 1007.7 |
| 20260510050008 | 61 | 243 | 0.0 | 2.0 | 0.00 | 0.04 | 0.00 | 71 | 1007.7 |
| 20260510045504 | 61 | 238 | 0.0 | 3.0 | 0.00 | 0.04 | 0.00 | 71 | 1007.6 |
| 20260510045007 | 61 | 236 | 0.0 | 3.0 | 0.00 | 0.04 | 0.00 | 70 | 1007.5 |
| 20260510044517 | 62 | 252 | 1.0 | 4.0 | 0.00 | 0.04 | 0.00 | 70 | 1007.5 |
| 20260510044003 | 62 | 267 | 1.0 | 5.0 | 0.00 | 0.04 | 0.00 | 69 | 1007.5 |
| 20260510043503 | 62 | 246 | 3.0 | 7.0 | 0.00 | 0.04 | 0.00 | 69 | 1007.4 |
| 20260510043018 | 62 | 307 | 2.0 | 7.0 | 0.00 | 0.04 | 0.00 | 69 | 1007.3 |
| 20260510042504 | 62 | 307 | 2.0 | 5.0 | 0.00 | 0.04 | 0.00 | 70 | 1007.2 |
| 20260510042010 | 62 | 279 | 3.0 | 5.0 | 0.00 | 0.04 | 0.00 | 69 | 1007.1 |
| 20260510041522 | 62 | 317 | 2.0 | 6.0 | 0.00 | 0.04 | 0.00 | 69 | 1007.1 |
| 20260510041007 | 62 | 290 | 2.0 | 6.0 | 0.00 | 0.04 | 0.00 | 68 | 1007.2 |
| 20260510040506 | 62 | 293 | 2.0 | 6.0 | 0.00 | 0.04 | 0.00 | 68 | 1007.1 |
| 20260510040024 | 62 | 274 | 2.0 | 6.0 | 0.00 | 0.04 | 0.00 | 68 | 1007.1 |
| 20260510035507 | 62 | 282 | 1.0 | 4.0 | 0.00 | 0.04 | 0.04 | 68 | 1007.1 |
| 20260510035003 | 62 | 264 | 1.0 | 6.0 | 0.00 | 0.04 | 0.04 | 68 | 1007.1 |
| 20260510034516 | 63 | 259 | 1.0 | 6.0 | 0.00 | 0.04 | 0.04 | 67 | 1006.9 |
| 20260510034004 | 63 | 297 | 2.0 | 6.0 | 0.00 | 0.04 | 0.04 | 67 | 1006.9 |
| 20260510033503 | 63 | 291 | 2.0 | 6.0 | 0.00 | 0.04 | 0.04 | 67 | 1006.9 |
| 20260510033019 | 63 | 278 | 2.0 | 5.0 | 0.00 | 0.04 | 0.04 | 67 | 1006.8 |
| 20260510032506 | 63 | 250 | 2.0 | 5.0 | 0.00 | 0.04 | 0.04 | 67 | 1006.7 |
| 20260510032006 | 63 | 270 | 1.0 | 5.0 | 0.00 | 0.05 | 0.04 | 67 | 1006.7 |
| 20260510031519 | 63 | 277 | 1.0 | 5.0 | 0.00 | 0.05 | 0.04 | 67 | 1006.7 |
| 20260510031005 | 62 | 265 | 1.0 | 5.0 | 0.00 | 0.05 | 0.04 | 67 | 1006.8 |
| 20260510030508 | 62 | 259 | 3.0 | 5.0 | 0.00 | 0.05 | 0.04 | 67 | 1006.7 |
| 20260510030026 | 62 | 258 | 1.0 | 5.0 | 0.00 | 0.05 | 0.04 | 67 | 1006.7 |
| 20260510025507 | 62 | 257 | 1.0 | 5.0 | 0.00 | 0.05 | 0.04 | 67 | 1006.8 |
| 20260510025007 | 62 | 270 | 1.0 | 4.0 | 0.00 | 0.05 | 0.04 | 67 | 1006.7 |
| 20260510024524 | 62 | 238 | 2.0 | 4.0 | 0.00 | 0.05 | 0.04 | 67 | 1006.7 |
| 20260510024008 | 62 | 259 | 0.0 | 2.0 | 0.00 | 0.06 | 0.04 | 67 | 1006.8 |
| 20260510023510 | 62 | 267 | 0.0 | 1.0 | 0.00 | 0.06 | 0.04 | 67 | 1006.7 |
| 20260510023027 | 63 | 281 | 0.0 | 0.0 | 0.00 | 0.06 | 0.04 | 66 | 1006.7 |
| 20260510022505 | 63 | 281 | 0.0 | 0.0 | 0.00 | 0.06 | 0.04 | 65 | 1006.5 |
| 20260510022006 | 63 | 311 | 0.0 | 2.0 | 0.00 | 0.06 | 0.04 | 65 | 1006.5 |
| 20260510021522 | 64 | 259 | 0.0 | 3.0 | 0.00 | 0.06 | 0.04 | 64 | 1006.4 |
| 20260510021007 | 64 | 300 | 1.0 | 3.0 | 0.00 | 0.06 | 0.04 | 64 | 1006.4 |
| 20260510020506 | 64 | 302 | 1.0 | 3.0 | 0.00 | 0.06 | 0.04 | 64 | 1006.4 |
| 20260510020022 | 64 | 352 | 0.0 | 3.0 | 0.00 | 0.06 | 0.04 | 63 | 1006.2 |
| 20260510015505 | 64 | 258 | 0.0 | 3.0 | 0.00 | 0.06 | 0.04 | 63 | 1006.2 |
| 20260510015010 | 65 | 234 | 0.0 | 2.0 | 0.00 | 0.06 | 0.04 | 62 | 1006.1 |
| 20260510014522 | 65 | 252 | 0.0 | 5.0 | 0.00 | 0.06 | 0.04 | 62 | 1006.0 |
| 20260510014006 | 65 | 207 | 0.0 | 5.0 | 0.00 | 0.07 | 0.04 | 61 | 1005.8 |
| 20260510013507 | 65 | 278 | 1.0 | 4.0 | 0.00 | 0.07 | 0.04 | 61 | 1005.8 |
| 20260510013026 | 66 | 304 | 0.0 | 4.0 | 0.00 | 0.07 | 0.04 | 60 | 1005.8 |
| 20260510012508 | 66 | 266 | 1.0 | 6.0 | 0.00 | 0.07 | 0.04 | 60 | 1005.7 |
| 20260510012009 | 66 | 252 | 2.0 | 6.0 | 0.00 | 0.07 | 0.04 | 59 | 1005.6 |
| 20260510011528 | 66 | 257 | 2.0 | 5.0 | 0.00 | 0.07 | 0.04 | 59 | 1005.6 |
| 20260510011011 | 66 | 227 | 2.0 | 5.0 | 0.00 | 0.07 | 0.04 | 60 | 1005.5 |
| 20260510010503 | 66 | 240 | 1.0 | 5.0 | 0.00 | 0.07 | 0.04 | 60 | 1005.3 |
| 20260510010017 | 67 | 283 | 1.0 | 8.0 | 0.00 | 0.07 | 0.04 | 60 | 1005.3 |
| 20260510005507 | 67 | 257 | 2.0 | 8.0 | 0.00 | 0.07 | 0.04 | 59 | 1005.2 |
| 20260510005006 | 67 | 260 | 1.0 | 4.0 | 0.00 | 0.07 | 0.04 | 59 | 1005.2 |
| 20260510004524 | 67 | 281 | 1.0 | 5.0 | 0.00 | 0.07 | 0.04 | 58 | 1005.3 |
| 20260510004009 | 67 | 217 | 2.0 | 5.0 | 0.00 | 0.07 | 0.04 | 58 | 1005.1 |
| 20260510003507 | 67 | 227 | 2.0 | 5.0 | 0.00 | 0.07 | 0.04 | 58 | 1005.2 |
| 20260510003022 | 67 | 271 | 2.0 | 5.0 | 0.00 | 0.07 | 0.04 | 58 | 1005.1 |
| 20260510002507 | 68 | 291 | 1.0 | 6.0 | 0.00 | 0.07 | 0.04 | 58 | 1005.0 |
| 20260510002007 | 68 | 266 | 2.0 | 6.0 | 0.00 | 0.07 | 0.04 | 58 | 1004.8 |
| 20260510001527 | 68 | 200 | 1.0 | 5.0 | 0.00 | 0.07 | 0.04 | 57 | 1004.8 |
| 20260510001007 | 68 | 257 | 2.0 | 5.0 | 0.00 | 0.07 | 0.04 | 56 | 1004.8 |
| 20260510000508 | 68 | 260 | 1.0 | 11.0 | 0.00 | 0.07 | 0.04 | 56 | 1004.8 |
| 20260510000034 | 69 | 300 | 3.0 | 11.0 | 0.00 | 0.07 | 0.04 | 55 | 1004.8 |
| 20260509235509 | 69 | 281 | 3.0 | 9.0 | 0.00 | 0.07 | 0.04 | 55 | 1004.7 |
| 20260509235010 | 69 | 245 | 2.0 | 8.0 | 0.00 | 0.08 | 0.04 | 55 | 1004.6 |
| 20260509234510 | 70 | 251 | 4.0 | 8.0 | 0.00 | 0.08 | 0.04 | 54 | 1004.6 |
| 20260509234001 | 70 | 258 | 2.0 | 10.0 | 0.00 | 0.08 | 0.04 | 54 | 1004.6 |
| 20260509233502 | 70 | 252 | 3.0 | 10.0 | 0.00 | 0.08 | 0.04 | 55 | 1004.6 |
| 20260509233006 | 70 | 270 | 3.0 | 9.0 | 0.00 | 0.08 | 0.04 | 54 | 1004.6 |
| 20260509232503 | 70 | 33 | 4.0 | 9.0 | 0.00 | 0.08 | 0.04 | 54 | 1004.5 |
| 20260509232007 | 70 | 238 | 4.0 | 8.0 | 0.00 | 0.08 | 0.04 | 53 | 1004.4 |
| 20260509231512 | 71 | 173 | 3.0 | 8.0 | 0.00 | 0.08 | 0.04 | 53 | 1004.4 |
| 20260509231002 | 70 | 224 | 4.0 | 10.0 | 0.00 | 0.08 | 0.04 | 53 | 1004.5 |
| 20260509230502 | 70 | 231 | 4.0 | 11.0 | 0.00 | 0.08 | 0.04 | 52 | 1004.5 |
| 20260509230008 | 70 | 300 | 3.0 | 11.0 | 0.00 | 0.08 | 0.04 | 52 | 1004.5 |
| 20260509225502 | 70 | 218 | 7.0 | 12.0 | 0.00 | 0.08 | 0.04 | 52 | 1004.3 |
| 20260509225002 | 71 | 284 | 4.0 | 12.0 | 0.00 | 0.08 | 0.04 | 50 | 1004.3 |
| 20260509224527 | 72 | 247 | 5.0 | 14.0 | 0.00 | 0.08 | 0.04 | 50 | 1004.3 |
| 20260509224005 | 71 | 297 | 6.0 | 14.0 | 0.00 | 0.08 | 0.04 | 50 | 1004.3 |
| 20260509223504 | 72 | 347 | 8.0 | 14.0 | 0.00 | 0.08 | 0.04 | 49 | 1004.3 |
| 20260509223004 | 72 | 317 | 4.0 | 10.0 | 0.00 | 0.08 | 0.04 | 50 | 1004.3 |
| 20260509222502 | 73 | 280 | 5.0 | 13.0 | 0.00 | 0.08 | 0.04 | 49 | 1004.2 |
| 20260509222003 | 72 | 232 | 3.0 | 13.0 | 0.00 | 0.08 | 0.04 | 50 | 1004.1 |
| 20260509221503 | 72 | 41 | 5.0 | 16.0 | 0.00 | 0.08 | 0.04 | 50 | 1004.2 |
| 20260509221003 | 72 | 96 | 7.0 | 16.0 | 0.00 | 0.08 | 0.04 | 49 | 1004.2 |
| 20260509220507 | 72 | 213 | 6.0 | 16.0 | 0.00 | 0.08 | 0.04 | 50 | 1004.2 |
| 20260509220006 | 72 | 297 | 5.0 | 16.0 | 0.00 | 0.08 | 0.04 | 50 | 1004.1 |
| 20260509215504 | 72 | 237 | 4.0 | 12.0 | 0.00 | 0.08 | 0.04 | 53 | 1004.0 |
| 20260509215002 | 72 | 207 | 4.0 | 12.0 | 0.00 | 0.08 | 0.04 | 50 | 1003.9 |
| 20260509214508 | 72 | 269 | 6.0 | 19.0 | 0.00 | 0.08 | 0.04 | 51 | 1004.0 |
| 20260509214002 | 72 | 268 | 5.0 | 19.0 | 0.00 | 0.08 | 0.04 | 50 | 1004.3 |
| 20260509213508 | 72 | 319 | 4.0 | 14.0 | 0.00 | 0.08 | 0.04 | 50 | 1004.1 |
| 20260509213016 | 72 | 211 | 3.0 | 14.0 | 0.00 | 0.08 | 0.04 | 52 | 1004.2 |
| 20260509212506 | 72 | 238 | 6.0 | 14.0 | 0.00 | 0.08 | 0.04 | 51 | 1004.3 |
| 20260509212008 | 72 | 233 | 4.0 | 13.0 | 0.00 | 0.08 | 0.04 | 53 | 1004.4 |
| 20260509211508 | 72 | 281 | 5.0 | 14.0 | 0.00 | 0.08 | 0.04 | 52 | 1004.6 |
| 20260509211003 | 72 | 260 | 5.0 | 14.0 | 0.00 | 0.08 | 0.04 | 53 | 1004.4 |
| 20260509210502 | 72 | 235 | 6.0 | 14.0 | 0.00 | 0.08 | 0.04 | 52 | 1004.4 |
| 20260509210006 | 72 | 172 | 3.0 | 12.0 | 0.00 | 0.08 | 0.04 | 53 | 1004.5 |
| 20260509205503 | 72 | 240 | 4.0 | 13.0 | 0.00 | 0.08 | 0.04 | 54 | 1004.4 |
| 20260509205003 | 71 | 265 | 5.0 | 14.0 | 0.00 | 0.08 | 0.04 | 53 | 1004.4 |
| 20260509204507 | 72 | 219 | 6.0 | 14.0 | 0.00 | 0.08 | 0.04 | 54 | 1004.5 |
| 20260509204002 | 71 | 252 | 3.0 | 15.0 | 0.00 | 0.08 | 0.04 | 54 | 1004.5 |
| 20260509203503 | 71 | 252 | 4.0 | 15.0 | 0.00 | 0.08 | 0.04 | 52 | 1004.5 |
| 20260509203011 | 71 | 243 | 5.0 | 11.0 | 0.00 | 0.08 | 0.04 | 54 | 1004.6 |
| 20260509202503 | 71 | 145 | 5.0 | 15.0 | 0.00 | 0.08 | 0.04 | 54 | 1004.7 |
| 20260509202008 | 71 | 247 | 7.0 | 15.0 | 0.00 | 0.08 | 0.04 | 53 | 1004.9 |
| 20260509201516 | 71 | 226 | 5.0 | 13.0 | 0.00 | 0.08 | 0.04 | 55 | 1004.8 |
| 20260509201006 | 71 | 147 | 3.0 | 13.0 | 0.00 | 0.08 | 0.04 | 55 | 1004.9 |
| 20260509200507 | 71 | 128 | 5.0 | 13.0 | 0.00 | 0.08 | 0.04 | 56 | 1005.0 |
| 20260509200021 | 70 | 329 | 5.0 | 13.0 | 0.00 | 0.08 | 0.04 | 57 | 1005.1 |
| 20260509195513 | 71 | 253 | 7.0 | 13.0 | 0.00 | 0.08 | 0.04 | 55 | 1005.1 |
| 20260509195003 | 70 | 195 | 5.0 | 11.0 | 0.00 | 0.08 | 0.04 | 56 | 1005.1 |
| 20260509194504 | 70 | 321 | 4.0 | 12.0 | 0.00 | 0.08 | 0.04 | 55 | 1005.2 |
| 20260509194003 | 70 | 356 | 3.0 | 14.0 | 0.00 | 0.08 | 0.04 | 55 | 1005.2 |
| 20260509193504 | 70 | 284 | 6.0 | 14.0 | 0.00 | 0.08 | 0.04 | 56 | 1005.3 |
| 20260509193012 | 70 | 224 | 3.0 | 12.0 | 0.00 | 0.08 | 0.04 | 58 | 1005.1 |